Location: Chuathbaluk
(61.5726°N, 159.2454°W)
Time: 06:44:14
(UTC+00:00)

Transit 4A - Visible Passes

Search period start: 27 November 2020 00:00
Search period end: 07 December 2020 00:00
Orbit: 862 x 982 km, 66.8° (Epoch: 26 November)

Date Brightness Start Highest point End Pass type
(mag) Time Alt. Az. Time Alt. Az. Time Alt. Az.
27 Nov 8.5 02:40:53 10° NW 02:47:16 67° SW 02:53:30 10° SE visible
27 Nov 10.3 04:27:47 10° WNW 04:32:44 24° WSW 04:37:37 10° SSW visible
27 Nov 10.8 17:59:44 10° SSE 18:04:07 20° ESE 18:08:32 10° ENE visible
28 Nov 8.9 02:50:16 10° NW 02:56:31 55° SW 03:02:37 10° SSE visible
28 Nov 10.7 04:37:29 10° WNW 04:41:43 19° WSW 04:45:52 10° SSW visible
28 Nov 10.6 18:08:03 10° SSE 18:13:06 25° ESE 18:18:12 10° ENE visible
29 Nov 9.3 02:59:40 10° NW 03:05:42 45° SW 03:11:36 10° SSE visible
29 Nov 11.0 04:47:30 10° WNW 04:50:37 14° WSW 04:53:42 10° SW visible
29 Nov 10.2 18:16:37 10° S 18:22:09 32° ESE 18:27:44 10° ENE visible
30 Nov 9.8 03:09:06 10° WNW 03:14:50 36° WSW 03:20:27 10° S visible
30 Nov 11.4 04:58:58 10° W 04:59:27 10° W 04:59:56 10° WSW visible
30 Nov 11.3 16:44:03 10° ESE 16:46:28 12° E 16:48:53 10° ENE visible
30 Nov 9.7 18:25:23 10° S 18:31:15 40° ESE 18:37:11 10° NE visible
01 Dec 10.2 03:18:35 10° WNW 03:23:54 28° WSW 03:29:06 10° S visible
01 Dec 11.1 16:51:33 10° SE 16:55:21 17° ESE 16:59:10 10° ENE visible
02 Dec 10.7 03:28:12 10° WNW 03:32:55 22° WSW 03:37:33 10° SSW visible
02 Dec 10.7 16:59:38 10° SSE 17:04:17 22° ESE 17:08:58 10° ENE visible
03 Dec 11.0 03:37:59 10° WNW 03:41:52 17° WSW 03:45:40 10° SW visible
03 Dec 10.3 17:08:02 10° S 17:13:18 28° ESE 17:18:36 10° ENE visible
04 Dec 11.2 03:48:13 10° WNW 03:50:44 13° W 03:53:14 10° WSW visible
04 Dec 9.8 17:16:41 10° S 17:22:22 35° ESE 17:28:05 10° ENE visible
05 Dec 11.0 15:43:35 10° SE 15:46:35 14° ESE 15:49:37 10° ENE visible
05 Dec 9.3 17:25:30 10° SSW 17:31:30 44° SE 17:37:31 10° NE visible
06 Dec 10.5 02:18:59 10° WNW 02:24:06 26° WSW 02:29:05 10° SSW visible
06 Dec 10.7 15:51:21 10° SSE 15:55:30 18° ESE 15:59:40 10° ENE visible
06 Dec 8.9 17:34:28 10° SSW 17:40:41 54° SE 17:46:55 10° NE visible
